GW0870 Weather Reports


time (UTC)temp
C
wind
direction
speed
KPH
gust
KPH
rain 1hr
cm
rain 24hr
cm
rain mn
cm
humidity
%
barometer
mb
20260906190054 28 320 0.0 14.5 0.00 0.03 0.03 75 1013.0
20260906184606 28 55 3.2 12.9 0.00 1.32 0.03 73 1013.3
20260906183103 28 46 0.0 12.9 0.00 1.32 0.03 74 1013.5
20260906181556 28 0 3.2 12.9 0.00 1.32 0.03 73 1013.7
20260906180057 27 0 0.0 6.4 0.00 1.32 0.03 76 1013.7
20260906174551 27 44 1.6 4.8 0.00 1.32 0.03 77 1013.7
20260906173055 25 0 1.6 4.8 0.00 1.32 0.03 82 1013.9
20260906171604 23 22 0.0 9.7 0.00 1.32 0.03 90 1014.4
20260906170056 22 0 0.0 4.8 0.00 1.32 0.03 94 1014.2
20260906164601 21 18 0.0 1.6 0.00 1.32 0.03 94 1014.5
20260906163059 21 0 0.0 1.6 0.03 1.32 0.03 93 1014.7
20260906161602 21 331 0.0 3.2 0.03 1.32 0.03 92 1014.7
20260906160056 21 0 0.0 8.0 0.03 1.32 0.03 92 1014.5
20260906154603 22 54 1.6 30.6 0.03 1.32 0.03 89 1014.9
20260906153054 26 0 0.0 4.8 0.00 1.30 0.00 82 1015.3
20260906151554 27 10 1.6 4.8 0.00 1.30 0.00 79 1014.3
20260906150104 26 0 1.6 8.0 0.00 1.30 0.00 82 1014.0
20260906144606 25 0 0.0 4.8 0.00 1.30 0.00 86 1014.0
20260906143055 25 26 0.0 1.6 0.00 1.30 0.00 86 1014.0
20260906141552 25 0 0.0 1.6 0.00 1.30 0.00 88 1013.8
20260906140057 24 0 0.0 3.2 0.00 1.30 0.00 88 1013.7
20260906134554 24 0 0.0 4.8 0.00 1.30 0.00 88 1013.7
20260906133053 24 72 0.0 8.0 0.00 1.30 0.00 89 1013.6
20260906131550 23 59 0.0 8.0 0.00 1.30 0.00 92 1013.6
20260906130054 22 20 0.0 4.8 0.00 1.30 0.00 95 1013.5
20260906124554 22 0 0.0 8.0 0.00 1.30 0.00 95 1013.4
20260906123051 22 32 0.0 6.4 0.00 1.30 0.00 95 1013.3
20260906121549 21 351 1.6 8.0 0.00 1.30 0.00 96 1013.0
20260906120058 21 0 1.6 6.4 0.00 1.30 0.00 96 1013.0
20260906114556 21 28 0.0 4.8 0.00 1.30 0.00 96 1012.9
20260906113100 21 0 0.0 6.4 0.00 1.30 0.00 96 1012.9
20260906111557 20 0 0.0 0.0 0.00 1.30 0.00 95 1012.8
20260906110051 20 0 0.0 0.0 0.00 1.30 0.00 95 1012.9
20260906104603 20 0 0.0 0.0 0.00 1.30 0.00 95 1012.3
20260906103053 20 0 0.0 0.0 0.00 1.30 0.00 95 1012.2
20260906101550 20 0 0.0 0.0 0.00 1.30 0.00 95 1011.9
20260906100052 20 0 0.0 0.0 0.00 1.30 0.00 95 1011.7
20260906094639 20 0 0.0 0.0 0.00 1.30 0.00 95 1011.5
20260906093103 20 0 0.0 0.0 0.00 1.30 0.00 95 1011.5
20260906091555 20 0 0.0 0.0 0.00 1.30 0.00 95 1011.4
20260906090051 21 0 0.0 0.0 0.00 1.30 0.00 95 1011.2
20260906084547 21 0 0.0 0.0 0.00 1.30 0.00 95 1011.2
20260906083053 21 0 0.0 0.0 0.00 1.30 0.00 95 1011.2
20260906081554 21 0 0.0 0.0 0.00 1.30 0.00 95 1011.2
20260906080055 21 0 0.0 0.0 0.00 1.30 0.00 95 1011.1
20260906074554 21 0 0.0 0.0 0.00 1.30 0.00 95 1010.9
20260906073054 21 0 0.0 0.0 0.00 1.30 0.00 95 1010.8
20260906071556 21 0 0.0 0.0 0.00 1.30 0.00 95 1011.0
20260906070059 21 0 0.0 0.0 0.00 1.30 0.00 95 1011.1
20260906064552 21 0 0.0 0.0 0.00 1.30 0.00 94 1011.2
20260906063052 21 0 0.0 0.0 0.00 1.30 0.00 95 1011.2
20260906061554 21 0 0.0 0.0 0.00 1.30 0.00 95 1011.3
20260906060100 21 0 0.0 0.0 0.00 1.30 0.00 95 1011.3
20260906054557 21 0 0.0 0.0 0.00 1.30 0.00 95 1011.5
20260906053050 21 0 0.0 0.0 0.00 1.30 0.00 95 1011.7
20260906051555 21 0 0.0 0.0 0.00 1.30 0.00 94 1011.8
20260906050114 22 0 0.0 0.0 0.00 1.30 0.00 95 1011.9
20260906044554 21 0 0.0 0.0 0.00 1.30 0.00 94 1012.2
20260906043058 21 0 0.0 0.0 0.00 1.30 0.00 94 1012.2
20260906041553 22 0 0.0 0.0 0.00 1.30 0.00 94 1012.4
20260906040121 22 0 0.0 0.0 0.00 1.30 0.00 94 1012.4
20260906034601 22 0 0.0 0.0 0.00 1.30 1.30 94 1012.5
20260906033058 22 0 0.0 0.0 0.00 1.30 1.30 94 1012.5
20260906031555 22 0 0.0 0.0 0.00 1.30 1.30 94 1012.5
20260906030054 22 0 0.0 0.0 0.00 1.30 1.30 94 1012.5
20260906024602 22 0 0.0 0.0 0.00 1.30 1.30 94 1012.4
20260906023052 22 0 0.0 0.0 0.00 1.30 1.30 94 1012.4
20260906021603 22 0 0.0 3.2 0.00 1.30 1.30 94 1012.5
20260906020106 22 0 0.0 0.0 0.00 1.30 1.30 93 1012.2
20260906014558 22 0 0.0 1.6 0.00 1.30 1.30 93 1012.2
20260906013050 23 19 0.0 0.0 0.00 1.30 1.30 93 1012.1
20260906011557 23 0 0.0 0.0 0.00 1.30 1.30 93 1011.7
20260906010106 23 0 0.0 0.0 0.00 1.30 1.30 93 1011.7
20260906004600 23 0 0.0 0.0 0.00 1.30 1.30 93 1011.7
20260906003100 23 0 0.0 0.0 0.00 1.30 1.30 92 1011.5
20260906001606 23 0 0.0 0.0 0.00 1.30 1.30 91 1011.4
20260906000059 24 0 0.0 0.0 0.00 1.30 1.30 91 1011.1
20260905234559 25 0 0.0 0.0 0.00 1.30 1.30 90 1011.1
20260905233108 25 0 0.0 0.0 0.00 1.30 1.30 87 1011.0
20260905231554 26 0 0.0 1.6 0.00 1.30 1.30 85 1011.0
20260905230100 26 0 0.0 1.6 0.00 1.30 1.30 84 1011.2
20260905224601 26 0 0.0 1.6 0.00 1.30 1.30 84 1010.8
20260905223054 26 15 0.0 3.2 0.00 1.30 1.30 85 1010.8
20260905221551 25 0 0.0 1.6 0.00 1.30 1.30 88 1010.7
20260905220104 24 0 0.0 0.0 0.00 1.30 1.30 90 1010.7
20260905214556 23 0 0.0 3.2 0.00 1.30 1.30 90 1011.1
20260905213057 23 0 0.0 4.8 0.00 1.30 1.30 91 1011.5
20260905211555 23 0 0.0 1.6 0.00 1.30 1.30 92 1011.5
20260905210107 22 0 0.0 1.6 0.00 1.30 1.30 92 1011.6
20260905204550 22 23 0.0 1.6 0.00 1.30 1.30 93 1011.5
20260905203056 22 9 0.0 1.6 0.00 1.30 1.30 93 1011.1
20260905201604 22 0 0.0 3.2 0.00 1.30 1.30 93 1011.2
20260905200116 22 0 0.0 1.6 0.00 1.30 1.30 93 1012.0
20260905194546 21 345 0.0 0.0 0.51 1.30 1.30 92 1012.0
20260905193051 21 0 0.0 1.6 1.30 1.30 1.30 91 1011.6
20260905191552 21 334 0.0 4.8 1.30 1.30 1.30 90 1011.7